Theta_e
325 325 325 325 326 325 325 325 325 325 325 325 325 326 325 326 326 326 326 326 326 326 325 325 325 324 323 322 322 321 321 321 321 321 321 321 321 321 321 321 321 322
326 325 325 325 325 326 325 325 325 325 326 326 326 326 325 326 326 326 326 326 326 325 325 325 324 324 323 323 322 321 321 321 321 321 321 320 321 320 321 321 322 322
326 325 325 325 325 326 326 326 326 326 326 326 326 326 326 326 326 326 325 325 325 325 325 325 325 324 324 323 322 322 321 321 321 320 321 320 320 320 321 321 322 322
326 326 326 326 326 326 326 326 326 326 326 326 326 326 326 326 326 325 325 325 325 325 325 325 324 324 323 323 323 322 322 322 321 321 321 321 321 321 321 322 322 322
326 326 326 326 326 326 326 326 326 326 326 326 326 326 326 326 326 325 325 325 325 326 325 325 324 324 323 323 323 323 323 322 322 322 321 321 322 322 322 323 322 323
326 326 326 326 326 326 326 325 326 326 326 326 326 326 326 326 326 326 326 326 326 326 326 325 325 324 323 323 324 324 324 324 323 323 323 322 322 323 323 323 323 322
326 326 326 327 326 326 326 326 326 326 326 326 326 326 326 326 326 326 326 327 327 326 326 326 325 325 324 324 324 324 324 324 324 324 324 324 323 323 323 323 323 323
326 326 326 326 326 326 326 326 326 326 326 326 326 326 326 326 326 327 327 327 327 327 327 326 326 325 325 325 324 325 325 325 325 324 324 324 324 324 324 324 324 323
325 325 326 326 326 326 326 326 326 326 327 326 326 326 326 326 326 326 327 327 327 327 326 326 326 325 325 325 325 325 325 325 325 325 325 325 324 325 325 324 324 324
324 324 325 325 325 326 326 326 326 326 326 326 326 326 326 326 326 326 326 327 326 326 326 326 326 325 325 325 325 325 325 325 325 325 325 325 325 325 325 325 324 323
323 323 324 324 324 325 325 325 326 326 326 326 326 326 325 325 326 326 326 326 326 326 326 325 325 325 325 325 325 325 325 325 325 325 325 325 325 325 325 325 324 323
323 323 323 324 324 324 324 324 324 325 325 325 325 325 325 325 325 325 325 325 325 325 325 325 325 325 325 325 325 324 325 325 325 325 325 325 325 324 324 324 324 324
321 322 322 323 323 323 324 323 324 324 324 324 325 324 324 324 324 325 325 325 325 325 325 325 325 325 325 325 325 324 324 324 324 324 324 324 324 324 324 324 324 324
319 321 321 322 322 322 322 322 322 323 323 323 323 324 324 324 324 324 324 325 325 325 325 325 325 325 325 324 324 324 323 323 323 324 324 324 324 324 324 324 323 323
315 317 318 319 319 319 320 320 320 320 321 322 322 323 323 323 324 324 324 324 324 325 325 325 325 324 324 324 323 323 324 323 323 323 323 323 323 323 323 322 322 322
312 314 316 316 316 317 317 318 318 319 319 320 320 321 321 322 322 323 323 323 324 324 324 324 324 324 323 323 322 322 323 323 322 322 323 322 322 322 321 321 321 320
310 311 312 313 314 315 316 316 316 317 318 318 319 319 320 321 321 322 322 322 322 323 323 322 322 322 322 322 321 321 322 323 323 322 322 321 321 321 320 320 319 318
309 309 309 310 311 313 314 314 314 314 315 316 317 318 318 319 319 319 320 320 320 321 321 321 322 322 322 321 321 321 321 321 321 321 321 320 320 320 320 318 317 316
308 308 308 309 310 310 311 311 310 311 312 313 314 315 315 315 316 316 317 318 319 320 320 321 321 321 320 320 320 320 320 320 320 321 320 319 319 319 318 317 316 315
307 307 308 308 309 309 308 308 308 309 310 311 312 313 313 314 315 315 316 317 318 318 319 319 319 319 319 319 319 320 320 320 320 320 319 318 318 317 316 315 315 314
307 307 307 307 307 307 306 307 308 309 310 311 312 312 313 315 315 316 317 318 318 318 318 318 318 319 319 319 320 319 319 319 318 318 317 317 315 314 314 314 313 313
308 307 307 307 306 305 306 307 308 309 310 311 312 312 313 314 314 315 316 317 317 317 317 317 318 318 318 318 318 317 317 317 316 316 315 314 313 312 312 312 312 311
307 308 307 306 306 305 306 307 307 308 309 310 310 310 311 311 312 312 313 314 315 316 316 316 316 316 317 317 316 316 315 314 314 313 312 312 311 311 311 311 310 309
306 307 306 306 306 306 306 306 307 307 308 308 308 307 307 307 308 309 310 311 312 313 314 315 315 315 315 315 315 314 313 313 313 312 311 310 310 310 310 309 308 306
304 305 306 306 306 306 306 306 306 306 305 305 304 304 304 304 305 306 307 308 310 311 311 312 312 312 313 313 313 312 311 311 311 310 309 308 308 308 308 307 306 305
304 304 305 305 306 306 305 305 305 304 304 303 302 301 302 303 304 305 306 307 308 309 310 310 310 310 311 311 310 310 310 310 310 310 309 307 306 307 307 305 304 304
Wind_Speed
45 44 42 41 42 42 40 38 38 38 39 40 40 41 40 39 38 37 36 36 35 35 35 34 33 34 34 34 34 34 35 36 37 36 35 35 36 35 35 35 35 34
44 43 42 41 41 41 40 39 38 39 40 41 40 40 38 36 36 36 35 35 34 34 33 32 32 32 32 32 32 33 34 35 35 35 34 34 35 34 35 35 35 35
43 43 42 42 42 42 41 40 39 39 39 39 38 37 36 36 35 35 34 33 33 32 30 29 29 30 30 30 31 32 33 34 34 33 33 34 34 34 35 35 35 35
42 42 43 44 44 44 41 39 39 39 38 37 37 36 35 35 34 33 32 32 31 30 28 27 27 27 28 29 29 31 32 33 33 32 32 33 34 34 34 34 35 35
41 42 43 43 44 43 40 38 39 39 38 38 37 35 34 34 32 32 31 30 30 29 28 27 27 27 27 28 29 30 31 32 32 31 32 33 34 34 34 34 34 35
39 40 41 42 42 40 38 38 39 38 38 38 36 34 34 33 32 31 31 30 29 29 28 28 28 27 27 28 29 30 31 31 31 31 33 34 34 34 34 34 34 34
38 39 39 39 39 39 37 38 39 38 37 37 35 34 34 32 32 31 31 30 30 30 30 29 29 29 28 28 30 31 32 32 32 33 34 34 33 33 33 33 33 34
37 36 36 37 37 36 36 37 38 37 37 35 34 34 33 32 32 31 31 30 31 31 31 31 31 30 29 29 30 32 33 33 34 34 34 34 33 33 33 33 34 35
34 34 34 34 34 35 36 37 38 37 36 35 34 34 33 32 32 32 31 31 31 32 32 32 31 31 30 31 32 33 33 34 34 34 34 34 34 34 34 34 34 35
33 34 34 34 35 36 37 37 37 37 36 35 34 34 33 33 33 33 32 33 33 33 33 32 32 32 31 32 33 33 33 33 34 35 35 35 35 34 34 34 34 35
33 34 34 36 37 37 37 37 36 36 35 35 34 34 34 34 33 33 34 34 34 34 34 33 33 32 32 33 32 32 33 34 34 34 34 34 34 34 34 34 34 33
33 34 34 36 36 36 36 36 35 35 35 35 35 34 34 34 34 34 35 35 35 35 34 34 32 32 32 30 30 33 34 35 34 33 33 33 33 33 33 33 32 31
33 34 34 35 35 35 35 34 34 34 34 35 35 34 34 34 34 35 35 35 34 34 34 34 33 33 32 29 30 33 34 33 33 32 31 31 31 30 30 30 31 30
33 32 33 33 33 33 33 33 33 33 33 33 33 33 34 35 35 34 34 34 34 34 34 33 33 33 32 32 34 33 31 30 30 30 29 30 29 28 28 28 28 28
30 30 30 31 31 31 32 32 32 31 31 31 32 33 33 33 34 33 33 33 33 33 33 32 33 34 35 34 32 30 28 28 28 27 27 28 27 27 27 27 26 25
28 28 28 28 29 30 31 30 30 30 30 30 31 32 31 31 32 32 33 33 34 33 34 34 34 34 31 28 26 25 26 27 27 26 25 25 26 26 25 25 25 25
26 26 27 27 28 29 29 29 29 29 29 30 30 30 30 30 30 31 32 32 32 32 32 32 30 28 26 25 25 27 26 26 26 25 24 24 24 23 23 24 24 22
26 26 26 26 27 27 28 28 28 28 29 29 29 29 28 28 28 29 29 29 28 28 27 27 27 26 25 26 26 25 24 22 22 21 22 22 22 21 22 22 21 20
25 25 25 26 26 26 25 25 25 26 27 27 27 26 25 26 26 26 26 25 25 25 26 27 26 25 24 23 22 21 21 20 19 18 18 19 19 19 19 19 19 18
24 25 26 26 25 24 23 23 23 24 25 25 24 24 24 24 24 24 24 24 24 25 24 23 23 23 23 23 21 21 21 20 19 17 16 16 17 18 18 18 17 16
25 26 26 25 25 24 23 24 24 24 24 24 23 24 24 24 23 24 24 23 23 25 24 21 20 20 20 21 21 20 20 20 18 17 17 18 17 17 17 15 14 14
27 27 27 26 25 25 25 26 26 25 25 24 24 24 23 23 23 23 23 23 23 23 23 22 21 20 20 19 20 20 20 19 18 18 19 19 18 17 15 14 15 15
28 28 28 27 27 27 28 29 28 26 26 25 24 24 23 23 23 22 22 22 22 23 23 23 23 22 22 22 21 22 22 21 20 19 19 18 18 17 15 15 16 17
30 30 29 29 29 30 31 30 29 28 27 25 24 24 23 23 22 21 21 21 22 23 23 22 22 23 23 24 24 24 23 23 22 21 20 20 19 18 17 17 17 17
31 31 31 31 32 32 32 31 30 29 27 26 25 25 24 22 21 21 22 22 23 23 23 22 22 21 22 23 23 23 23 23 23 22 22 22 22 21 20 19 18 18
32 32 33 33 34 33 32 31 30 29 27 26 25 24 23 22 23 23 23 23 23 23 23 23 23 22 22 22 22 22 22 22 22 23 24 24 23 22 22 21 20 19
Wind_Direction
225 225 226 227 228 230 230 229 229 230 231 233 234 236 237 238 240 239 240 242 242 244 245 246 247 247 247 246 244 243 243 243 243 242 240 241 242 241 240 241 240 240
225 225 225 227 229 230 231 231 231 232 234 235 237 238 238 239 241 241 241 242 242 242 243 244 246 247 247 247 245 243 243 243 242 241 239 240 241 241 241 242 242 242
226 225 225 227 229 231 232 231 232 233 235 237 237 238 239 240 241 241 241 241 240 241 242 243 245 247 247 247 246 245 244 243 241 241 240 240 242 241 242 244 243 243
226 226 226 228 230 232 232 231 232 233 234 236 238 238 239 240 240 240 239 239 239 239 240 241 243 245 246 246 246 246 245 244 244 243 240 240 242 242 242 244 243 244
228 228 228 229 231 232 232 231 232 234 234 236 237 237 238 238 238 238 237 236 236 236 238 240 242 244 244 244 243 244 244 244 245 244 240 239 242 243 244 244 242 242
229 229 229 230 231 232 231 232 234 234 235 236 236 236 237 237 237 236 234 234 234 235 237 240 242 242 242 242 242 242 243 243 244 243 240 239 241 241 242 242 241 242
229 230 230 231 232 232 232 233 235 235 235 236 235 235 236 235 235 235 234 234 234 235 237 239 240 241 241 241 240 241 241 241 242 241 239 239 241 241 241 242 243 244
231 231 231 231 231 232 232 234 235 236 236 236 235 236 235 234 235 235 234 234 234 235 238 238 239 239 241 241 240 240 240 239 239 237 237 238 239 240 241 243 243 243
233 233 233 233 232 232 233 234 236 237 236 235 235 236 235 234 235 235 234 234 234 236 237 238 238 239 240 241 241 240 239 238 238 237 237 237 237 238 241 242 242 242
235 235 234 234 234 234 235 236 237 237 236 235 235 236 235 235 236 236 235 234 234 235 236 237 238 239 241 241 241 241 239 239 239 238 238 238 238 239 241 242 241 241
236 236 235 235 236 236 237 237 237 237 237 236 236 235 235 235 235 234 233 233 233 234 235 237 239 240 241 241 242 243 242 240 239 239 239 240 241 242 243 242 242 242
236 235 235 236 237 237 238 239 238 238 237 237 236 235 234 234 233 233 232 232 233 234 235 238 240 241 241 242 244 244 242 240 240 240 241 243 244 245 246 245 246 248
235 235 235 236 237 238 239 239 239 238 238 238 237 235 234 234 233 233 233 233 234 235 236 237 238 239 240 241 242 242 240 239 239 240 243 245 245 246 248 248 248 249
235 235 235 236 237 238 238 238 237 237 237 237 237 235 234 234 234 234 234 235 235 236 237 238 239 240 239 239 239 240 240 240 240 240 242 244 244 246 248 248 250 250
236 236 236 236 236 236 236 236 235 235 235 235 235 235 235 235 235 235 235 235 235 235 237 237 238 238 237 238 239 239 239 240 240 240 241 242 243 244 245 245 246 248
236 236 236 235 234 234 234 234 234 234 234 233 233 234 234 234 235 234 234 234 233 234 234 234 235 235 236 238 239 238 239 240 240 241 242 242 243 243 242 241 242 243
235 235 234 234 234 234 233 233 232 231 232 232 232 233 233 232 233 232 231 232 232 232 233 232 234 234 235 237 236 236 239 242 240 241 242 240 240 241 242 241 239 236
234 232 232 233 232 233 232 231 230 229 229 229 228 228 228 227 228 228 229 230 230 230 231 233 234 233 232 234 234 231 234 237 237 238 240 237 235 236 238 237 233 229
232 231 231 232 231 230 230 227 225 225 224 224 224 223 223 224 225 226 228 227 226 227 229 230 229 227 228 230 229 227 230 232 231 231 233 232 229 227 226 225 222 221
228 228 229 230 228 226 224 221 220 220 219 220 219 218 219 220 221 222 222 222 223 224 226 226 224 223 224 226 226 226 227 226 222 221 223 225 222 219 217 216 216 218
224 224 224 224 223 220 218 218 218 218 217 216 215 215 216 216 216 217 216 216 220 220 219 220 221 219 218 218 217 216 216 215 215 217 218 218 216 214 213 212 212 212
222 220 218 218 215 213 214 215 216 216 215 214 214 215 215 214 214 214 213 212 215 216 214 214 215 214 212 211 209 208 209 210 213 215 214 212 210 209 207 205 203 202
221 217 214 212 209 209 211 213 214 214 213 213 213 214 215 216 215 215 215 215 215 215 216 217 216 214 215 217 216 215 214 213 212 212 210 209 208 204 202 202 200 196
221 216 213 210 207 209 210 210 211 211 212 213 216 219 221 221 221 220 221 221 221 220 219 219 217 214 213 216 218 218 216 213 211 210 208 206 202 195 194 198 197 193
222 216 214 212 210 212 211 209 209 209 212 216 219 221 221 219 218 218 219 220 221 222 221 220 219 217 213 213 214 212 211 209 207 204 201 197 193 188 187 191 193 192
223 218 216 215 214 213 211 209 209 209 212 216 215 213 213 213 212 213 214 215 214 214 215 215 215 214 211 209 206 204 203 203 201 198 196 192 189 187 188 190 192 193